Location: Newark
(13.6797°N, 8.5297°E)
Time: 13:59:13
(UTC+00:00)

Altair - Visible Passes

Search period start: 24 January 2020 00:00
Search period end: 03 February 2020 00:00
Orbit: 1502 x 1682 km, 47.2° (Epoch: 23 January)

Date Brightness Start Highest point End Pass type
(mag) Time Alt. Az. Time Alt. Az. Time Alt. Az.
24 Jan 9.9 04:02:08 10° SSE 04:08:00 18° SE 04:13:56 10° E visible
25 Jan 9.9 03:37:56 10° SSE 03:42:51 15° SE 03:47:47 10° E visible
25 Jan 10.2 18:26:49 10° WSW 18:29:56 12° SW 18:33:03 10° SW visible
26 Jan 10.0 03:14:05 10° SSE 03:17:40 12° SE 03:21:16 10° ESE visible
26 Jan 7.9 05:12:14 10° SSW 05:21:54 74° SE 05:31:54 10° NE visible
26 Jan 10.1 18:00:11 10° W 18:04:46 14° SW 18:09:19 10° SSW visible
27 Jan 10.0 02:51:39 10° SE 02:52:29 10° SE 02:53:19 10° ESE visible
27 Jan 8.0 04:47:11 10° SSW 04:56:44 67° SE 05:06:37 10° NE visible
28 Jan 8.1 04:22:10 10° SSW 04:31:34 60° SE 04:41:18 10° NE visible
29 Jan 8.2 03:57:11 10° SSW 04:06:25 53° SE 04:15:59 10° NE visible
30 Jan 8.3 03:32:15 10° SSW 03:41:16 47° SE 03:50:36 10° ENE visible
31 Jan 8.4 03:07:21 10° SSW 03:16:08 42° SE 03:25:12 10° ENE visible
31 Jan 7.9 05:11:36 10° WSW 05:20:44 46° NW 05:30:15 10° NNE visible
01 Feb 8.6 02:46:41 26° S 02:51:00 37° SE 02:59:44 10° ENE visible
01 Feb 7.7 04:46:14 10° WSW 04:55:30 51° NW 05:05:08 10° NNE visible
02 Feb 8.7 02:25:24 33° SE 02:25:51 33° SE 02:34:14 10° ENE visible
02 Feb 7.6 04:23:36 21° WSW 04:30:16 57° NW 04:40:01 10° NNE visible
